Regional Weather Roundup
Issued by NWS Goodland, KS

Home | Current Version | Previous Version | Graphics & Text | Print | Product List | Glossary On
Versions: 1 2 3 4 5 6 7 8 9 10 11 12 13 14 15 16 17 18 19 20 21 22 23 24 25 26 27 28 29 30 31 32 33 34 35 36 37 38 39 40 41 42 43 44 45 46 47 48 49 50
000
ASUS43 KGLD 270259
RWRGLD

GOODLAND FORECAST AREA HOURLY WEATHER ROUNDUP
NATIONAL WEATHER SERVICE GOODLAND KS
900 PM MDT MON JUN 26 2017

...OFFICIAL OBSERVATIONS...

CITY           SKY/WX    TMP DP  RH WIND       PRES   REMARKS
GOODLAND KS    MOCLDY    67  61  81 E7        30.11R
HILL CITY KS   CLEAR     70  59  68 E10       30.09R
IMPERIAL NEB   CLEAR     67  54  63 SE10      30.11S
MCCOOK NEB     CLEAR     69  58  67 E9        30.10R
AKRON CO       CLEAR     68  55  63 E16       30.14R
BURLINGTON CO  CLEAR     67  59  75 E12       30.13R
LIMON CO       CLOUDY    70  48  45 SE9       30.15S
$$

...UNOFFICIAL OBSERVATIONS...

CITY           SKY/WX    TMP DP  RH WIND       PRES   REMARKS
LENORA KS        N/A     68  32  26 MISG        N/A
NORTON KS      CLEAR     64  54  68 NE8       30.09S
SHARON SPRINGS   N/A     70  60  71 SE6         N/A
TRENTON NEB      N/A     66  32  28 SE6         N/A
KIT CARSON CO    N/A     75  55  50 CALM        N/A
YUMA CO        FAIR      64  52  63 E8        30.12R
$$




USA.gov is the U.S. government's official web portal to all federal, state and local government web resources and services.